Probability
29 26 32 35 42 45 45 48 45 48 48 42 45 42 45 48 42 39 39 39 39 35 32 29 32 29 29 26 29 26 23 19 23 19 19 13 16 13 16 13 16 13 13
32 35 42 35 35 48 45 48 48 45 48 42 42 39 35 39 35 35 32 26 29 29 23 32 35 32 32 29 26 26 13 13 16 16 13 10 6 10 6 10 13 10 13
39 42 39 39 35 39 35 32 48 45 42 42 35 29 32 32 32 32 26 29 29 19 26 19 23 29 26 26 23 16 13 13 10 19 16 3 3 6 6 6 6 10 10
32 35 35 42 42 39 35 42 45 45 42 35 29 29 29 19 16 19 19 23 23 19 19 23 19 23 26 23 19 16 16 13 13 13 13 3 3 3 6 6 6 6 6
29 29 32 35 32 32 29 39 42 42 42 35 23 26 23 19 23 19 23 19 19 19 19 23 29 26 26 23 16 10 10 13 10 10 10 3 3 3 3 3 3 3 3
23 26 29 32 32 29 26 26 32 39 32 29 19 19 19 19 16 16 16 16 16 13 16 19 23 29 26 13 13 13 13 13 13 13 3 3 3 3 3 3 0 0 0
32 29 23 26 29 29 26 26 29 29 29 23 19 19 16 16 19 13 13 16 13 16 16 13 26 26 23 19 16 13 10 6 6 6 3 3 3 3 3 0 0 0 0
29 26 26 26 29 29 29 23 23 23 23 19 16 23 23 13 13 13 10 13 23 19 19 19 19 19 16 13 16 13 10 6 6 6 3 6 6 6 6 0 0 0 0
23 23 19 19 23 23 23 23 26 19 16 16 16 19 19 16 13 16 16 19 19 16 16 16 16 26 16 16 13 13 10 6 10 3 3 3 0 0 0 0 0 0 0
19 16 19 19 16 19 23 19 19 23 16 16 13 13 13 13 16 19 23 23 19 13 13 13 13 23 16 13 16 10 13 13 13 3 0 0 0 0 0 0 0 0 0
13 13 13 13 16 16 19 16 19 13 13 10 13 13 10 10 10 16 16 16 16 16 16 10 10 13 13 16 13 10 13 3 0 0 0 0 0 0 0 0 0 0 0
10 13 13 13 10 10 10 10 6 6 6 6 10 6 10 13 13 10 10 13 13 10 6 6 6 10 10 13 10 3 3 0 3 0 0 0 0 0 0 0 0 0 0
13 6 10 6 6 3 3 3 6 3 3 3 6 6 6 6 6 13 10 13 6 6 3 10 10 10 13 13 13 3 3 3 0 0 0 0 0 0 0 0 0 0 0
3 3 3 3 0 0 3 0 0 0 0 0 0 3 3 3 3 6 6 6 6 6 10 10 10 13 10 6 3 3 3 3 3 3 0 0 0 0 0 0 0 0 0
6 3 3 3 3 0 0 0 0 0 0 0 0 0 0 13 10 6 10 13 10 6 10 6 6 6 0 0 0 0 3 3 3 3 0 0 0 0 0 0 0 0 0
6 3 3 3 0 0 0 0 0 0 0 0 0 0 3 3 0 10 10 6 6 6 6 6 6 3 0 0 0 0 0 0 0 0 0 0 0 0 0 0 0 0 0
6 6 3 3 0 3 0 0 0 0 0 0 0 0 0 0 0 0 3 6 6 6 10 6 6 3 0 0 0 0 3 3 0 0 0 0 0 0 0 0 0 0 0
6 10 3 3 0 0 0 0 0 0 0 0 0 0 0 0 3 6 3 10 10 10 3 6 6 3 0 0 0 0 0 0 0 0 0 0 0 0 0 0 0 0 0
6 10 3 3 6 3 3 0 0 6 6 3 3 3 0 0 3 3 6 6 10 10 3 3 0 6 0 0 0 0 0 0 0 0 0 0 0 0 0 0 0 0 0
3 10 3 3 3 3 3 0 0 3 3 6 3 3 3 3 6 10 10 10 6 6 3 0 0 3 3 0 0 0 0 0 0 0 0 0 0 0 0 0 0 0 0
6 10 3 3 3 3 3 10 3 3 3 0 0 3 6 16 10 13 13 6 6 6 6 6 6 3 6 0 0 0 0 0 0 0 0 0 0 0 0 0 0 0 0
3 0 0 3 6 6 3 0 3 6 3 3 3 10 13 3 3 10 13 13 10 6 10 6 6 6 3 0 0 0 0 0 0 0 0 0 0 0 0 0 0 0 0
3 3 0 3 3 3 3 3 3 0 3 10 16 13 13 6 6 13 6 0 6 3 0 0 0 6 0 0 0 0 0 0 0 0 0 0 0 0 0 0 0 0 0
0 0 0 0 6 3 0 6 0 6 6 13 13 19 13 10 6 10 0 0 3 0 0 0 0 0 0 0 0 0 0 0 0 0 0 0 0 0 0 0 0 0 0
0 0 0 0 0 0 0 0 3 3 3 16 16 16 13 3 6 3 6 0 0 0 0 0 0 0 0 0 0 0 0 0 0 0 0 0 0 0 0 0 0 0 0
0 0 3 0 0 0 0 3 6 3 6 10 19 13 13 10 0 0 0 0 0 0 0 0 0 0 0 0 0 0 0 0 0 0 0 0 0 0 0 0 0 0 0
Height
5837 5836 5835 5833 5831 5830 5829 5828 5827 5826 5824 5823 5821 5819 5817 5814 5812 5809 5807 5805 5803 5801 5798 5796 5795 5792 5790 5787 5785 5783 5781 5779 5777 5776 5775 5774 5772 5772 5771 5770 5770 5770 5770
5834 5832 5831 5829 5827 5825 5824 5823 5821 5820 5819 5817 5815 5813 5811 5809 5807 5804 5802 5799 5797 5794 5792 5790 5788 5786 5783 5780 5777 5775 5774 5772 5770 5769 5768 5767 5766 5765 5763 5763 5763 5763 5763
5830 5829 5827 5824 5823 5821 5819 5818 5816 5815 5813 5811 5809 5808 5805 5803 5801 5799 5797 5794 5791 5789 5786 5783 5781 5779 5776 5773 5771 5769 5767 5765 5763 5761 5760 5759 5758 5758 5757 5756 5756 5756 5757
5827 5825 5822 5820 5818 5816 5814 5812 5811 5809 5807 5805 5803 5802 5800 5798 5795 5793 5791 5788 5785 5783 5780 5777 5774 5772 5769 5767 5764 5762 5760 5758 5756 5755 5753 5752 5751 5750 5751 5750 5750 5750 5750
5824 5822 5819 5816 5814 5811 5809 5807 5805 5803 5801 5799 5797 5795 5794 5791 5789 5787 5785 5782 5779 5776 5773 5771 5768 5766 5762 5760 5758 5755 5753 5751 5749 5748 5746 5745 5744 5743 5743 5744 5743 5743 5743
5820 5818 5815 5812 5809 5807 5804 5802 5800 5797 5795 5793 5791 5789 5787 5785 5783 5781 5778 5776 5773 5770 5767 5764 5761 5759 5756 5754 5751 5749 5747 5745 5743 5741 5740 5739 5738 5737 5736 5736 5736 5736 5736
5816 5813 5810 5807 5805 5802 5799 5797 5794 5792 5789 5787 5785 5783 5781 5779 5777 5774 5772 5769 5767 5764 5761 5758 5755 5752 5749 5747 5745 5743 5741 5738 5736 5735 5733 5732 5731 5730 5729 5729 5729 5729 5729
5812 5809 5806 5803 5800 5797 5794 5792 5789 5786 5784 5782 5779 5777 5775 5773 5770 5768 5766 5763 5760 5757 5755 5752 5749 5746 5744 5741 5739 5737 5735 5732 5730 5728 5726 5725 5724 5723 5722 5722 5721 5721 5721
5809 5805 5802 5798 5795 5792 5789 5786 5784 5781 5779 5776 5774 5771 5769 5766 5764 5762 5760 5757 5754 5752 5749 5746 5744 5741 5738 5736 5733 5731 5729 5726 5724 5721 5720 5718 5717 5716 5715 5714 5714 5714 5713
5805 5801 5798 5794 5791 5788 5785 5782 5779 5776 5774 5771 5768 5765 5763 5761 5759 5757 5754 5751 5749 5746 5744 5741 5738 5736 5733 5730 5728 5725 5723 5720 5718 5715 5714 5712 5711 5709 5708 5707 5707 5706 5705
5800 5797 5793 5790 5787 5784 5781 5778 5775 5772 5768 5765 5762 5759 5757 5755 5753 5751 5748 5746 5743 5741 5738 5736 5733 5731 5728 5725 5722 5720 5717 5714 5712 5709 5707 5705 5704 5702 5701 5700 5699 5699 5698
5796 5792 5789 5786 5783 5780 5777 5773 5770 5767 5763 5760 5757 5754 5752 5750 5748 5745 5743 5740 5738 5736 5733 5731 5728 5726 5723 5720 5717 5714 5711 5709 5706 5704 5701 5699 5697 5696 5694 5693 5692 5691 5690
5791 5788 5785 5781 5778 5775 5772 5769 5765 5762 5758 5755 5752 5750 5748 5745 5742 5740 5737 5735 5733 5730 5728 5726 5723 5720 5718 5715 5712 5709 5706 5703 5700 5698 5695 5693 5691 5689 5687 5686 5685 5684 5683
5787 5784 5780 5777 5774 5770 5767 5764 5761 5757 5754 5750 5748 5745 5743 5740 5738 5735 5732 5730 5727 5725 5723 5720 5718 5715 5713 5710 5706 5703 5700 5697 5694 5692 5689 5686 5684 5682 5681 5679 5678 5676 5676
5784 5781 5777 5773 5770 5766 5763 5759 5756 5752 5749 5746 5743 5741 5738 5736 5733 5730 5728 5725 5722 5720 5718 5715 5713 5710 5707 5704 5701 5698 5695 5691 5689 5686 5683 5680 5678 5676 5674 5672 5671 5669 5668
5781 5777 5773 5769 5766 5762 5759 5755 5751 5748 5745 5742 5739 5736 5733 5731 5728 5725 5723 5720 5717 5715 5712 5710 5707 5704 5701 5699 5695 5692 5689 5686 5683 5680 5677 5674 5671 5670 5667 5665 5664 5662 5661
5777 5773 5769 5765 5762 5759 5755 5751 5747 5744 5741 5738 5735 5732 5729 5726 5723 5720 5718 5715 5712 5710 5707 5704 5701 5699 5696 5693 5690 5686 5682 5679 5676 5673 5670 5667 5665 5663 5661 5659 5657 5656 5654
5773 5769 5765 5762 5758 5754 5751 5747 5744 5740 5737 5733 5730 5727 5724 5721 5718 5715 5712 5710 5707 5704 5701 5699 5696 5693 5690 5687 5684 5680 5677 5674 5671 5667 5664 5662 5659 5656 5654 5653 5651 5649 5648
5769 5765 5761 5757 5753 5750 5747 5743 5740 5737 5733 5729 5726 5723 5720 5717 5714 5710 5707 5705 5702 5699 5696 5693 5691 5688 5685 5682 5678 5675 5672 5668 5665 5662 5659 5656 5654 5651 5648 5647 5645 5643 5642
5765 5761 5757 5753 5749 5746 5743 5740 5736 5733 5729 5726 5723 5719 5716 5713 5709 5706 5703 5700 5697 5694 5691 5688 5686 5683 5680 5677 5673 5670 5666 5663 5660 5657 5654 5651 5649 5646 5644 5641 5639 5638 5636
5761 5757 5753 5749 5746 5743 5739 5736 5733 5730 5726 5723 5719 5716 5712 5709 5706 5702 5699 5696 5693 5690 5687 5684 5681 5678 5675 5672 5668 5664 5661 5658 5655 5652 5649 5647 5644 5642 5640 5637 5635 5633 5631
5757 5753 5749 5746 5742 5739 5736 5733 5730 5727 5723 5720 5716 5713 5709 5706 5702 5699 5696 5693 5690 5687 5684 5681 5677 5674 5670 5667 5663 5660 5656 5653 5651 5648 5645 5642 5640 5638 5635 5633 5631 5628 5626
5752 5749 5746 5742 5739 5736 5733 5730 5727 5723 5720 5717 5714 5710 5707 5703 5700 5697 5694 5691 5688 5684 5681 5678 5674 5671 5667 5663 5660 5656 5653 5650 5647 5644 5642 5639 5637 5634 5632 5630 5627 5625 5623
5748 5745 5742 5739 5736 5733 5730 5726 5723 5720 5717 5714 5711 5708 5704 5701 5698 5695 5692 5688 5685 5682 5679 5675 5672 5668 5665 5661 5657 5653 5650 5647 5644 5641 5639 5636 5633 5631 5629 5626 5624 5621 5619
5744 5741 5738 5735 5732 5729 5726 5723 5720 5717 5714 5711 5708 5704 5701 5699 5696 5693 5690 5686 5683 5680 5677 5674 5670 5666 5663 5659 5655 5651 5648 5644 5641 5639 5637 5634 5631 5628 5626 5623 5621 5618 5615
5740 5737 5734 5731 5729 5726 5723 5720 5718 5714 5711 5708 5705 5702 5699 5696 5694 5691 5688 5685 5682 5679 5676 5673 5669 5665 5662 5658 5654 5650 5646 5643 5640 5637 5635 5632 5629 5626 5623 5620 5617 5615 5612
Wind_Speed
19 19 20 20 21 22 23 23 24 25 25 26 26 27 27 27 27 28 27 28 28 28 28 27 28 30 31 30 29 28 28 28 28 27 27 27 27 27 27 26 26 26 26
20 21 20 21 21 22 23 24 25 26 26 27 27 28 28 28 28 28 27 27 28 28 27 29 29 29 29 28 28 28 28 29 29 28 28 27 27 27 27 26 25 25 26
21 22 22 23 24 24 24 25 25 26 27 27 27 27 28 28 28 29 29 29 29 28 28 28 28 28 29 28 27 28 28 29 28 27 27 26 26 25 25 25 25 25 25
22 23 24 24 24 24 25 25 26 26 26 26 27 27 27 27 28 28 28 28 29 28 28 28 28 29 29 28 28 28 29 29 28 28 28 27 26 25 25 25 26 25 25
23 23 23 24 24 24 24 24 25 25 25 25 26 26 27 27 27 27 27 27 27 27 27 29 29 29 28 29 29 29 29 28 27 27 27 26 26 26 27 25 25 26 25
24 24 24 24 24 24 24 24 25 25 24 25 25 26 26 26 26 26 26 27 26 26 27 28 28 28 28 27 27 27 27 26 27 26 26 26 26 26 26 26 25 25 25
25 25 25 25 25 25 25 24 24 24 24 24 24 25 26 26 26 26 25 26 25 25 26 27 27 27 26 25 26 26 26 26 25 25 26 25 25 25 25 26 26 26 25
24 25 25 25 25 25 25 24 24 24 24 24 24 25 25 25 25 25 25 25 25 25 25 25 24 24 24 24 24 25 25 24 24 25 25 25 25 25 25 26 26 26 26
24 24 25 25 24 24 23 24 24 24 24 25 25 24 24 25 25 24 24 24 24 25 25 24 24 24 24 23 24 24 24 24 24 24 25 24 24 24 24 25 26 27 26
24 24 23 23 23 23 23 24 24 24 25 25 25 25 24 24 24 23 23 22 23 23 24 23 23 22 22 23 24 24 25 25 25 24 24 23 23 23 24 24 24 25 26
24 23 22 22 22 22 23 24 24 25 25 26 25 24 24 23 22 23 23 22 23 23 23 23 23 22 22 22 23 23 24 24 24 24 24 23 22 23 24 24 24 25 25
23 23 23 23 23 23 23 24 24 25 26 25 24 23 22 22 22 23 22 23 23 23 23 23 23 22 22 23 24 24 25 25 24 24 22 22 22 23 23 23 24 25 25
24 23 24 23 24 24 23 24 24 25 24 24 23 22 21 22 22 23 22 22 22 22 22 23 23 23 23 24 24 24 25 24 23 22 22 21 22 22 22 23 23 24 24
23 24 23 24 24 23 23 23 24 24 23 22 22 21 21 22 23 22 22 22 22 23 23 23 23 23 24 24 24 24 24 23 22 22 22 22 21 21 22 22 22 23 23
22 23 24 24 24 24 24 24 25 24 23 22 21 21 22 22 22 22 22 22 22 22 22 23 23 23 24 24 24 24 23 22 23 23 22 21 21 22 22 22 22 22 22
23 24 25 25 24 23 24 24 23 23 23 22 22 22 22 21 21 21 21 22 22 22 23 23 24 23 23 23 23 23 22 22 23 23 22 21 21 22 22 21 21 20 21
24 24 24 23 23 23 23 23 23 22 22 22 22 22 21 21 22 22 22 22 22 22 23 23 23 22 21 22 22 22 22 22 22 23 22 22 21 20 20 20 20 20 21
24 24 23 23 23 23 23 22 21 21 21 21 21 21 21 22 22 22 22 22 22 22 22 22 21 21 21 21 21 21 21 22 22 22 21 20 19 19 19 19 19 19 20
24 25 24 24 23 23 23 22 21 21 21 21 21 21 22 22 22 22 22 22 21 21 21 21 20 20 20 21 21 21 22 22 21 21 21 20 19 19 19 18 18 18 19
24 24 24 23 22 22 22 21 21 21 21 21 21 21 21 22 21 21 20 20 20 20 21 20 20 20 20 20 21 21 21 21 20 20 19 19 18 17 17 17 17 17 18
24 24 23 22 22 21 21 21 21 21 21 20 20 20 20 20 20 20 19 19 19 19 20 19 19 19 20 21 21 20 19 19 18 18 17 17 17 17 17 17 17 17 17
24 24 23 22 21 21 20 20 21 20 19 19 19 19 19 18 18 19 19 18 18 18 19 19 19 20 20 19 19 18 17 16 16 16 16 17 17 17 17 17 16 16 16
22 22 22 21 21 20 20 20 20 19 18 19 19 18 19 18 18 18 18 17 17 18 19 19 18 18 18 17 17 16 15 14 15 16 16 16 16 16 16 16 16 16 17
22 22 21 21 21 20 19 19 19 19 18 18 18 18 18 17 17 17 16 17 17 17 18 18 18 18 17 16 16 15 15 14 14 15 15 16 15 14 15 15 16 16 17
22 22 21 21 20 19 18 18 18 18 18 18 17 17 18 17 16 16 16 16 16 16 17 17 18 18 18 17 16 16 16 15 15 14 14 14 14 14 14 15 16 16 17
23 22 21 21 20 18 18 18 18 18 18 17 17 17 17 15 15 15 15 15 15 15 16 17 18 18 18 18 17 17 16 15 15 14 14 15 15 15 15 16 16 16 17
Wind_Direction
299 298 296 295 295 296 294 293 292 292 293 295 296 298 299 298 299 298 297 296 294 292 293 296 296 296 296 296 293 291 291 290 290 289 288 287 285 282 280 279 275 274 274
302 300 300 299 299 298 297 296 295 293 293 293 294 295 298 298 299 300 299 299 298 296 294 297 298 299 299 296 293 292 291 291 291 289 287 287 284 283 282 278 275 273 273
303 302 303 303 302 300 299 297 296 295 295 294 295 296 297 298 298 299 299 301 301 300 297 297 298 299 300 298 293 292 292 291 289 289 288 287 286 283 280 278 275 274 273
308 307 307 306 305 304 302 300 299 299 297 296 294 295 296 298 299 299 299 301 302 300 298 297 298 297 296 296 295 292 291 292 289 288 288 287 287 286 282 279 277 275 276
308 307 307 307 308 307 306 305 304 302 300 298 296 296 297 299 299 298 299 300 300 300 298 296 296 297 298 297 295 293 292 292 291 288 287 286 285 284 283 281 279 278 277
308 307 308 309 310 309 307 306 306 305 303 301 299 298 300 302 302 302 301 300 302 301 300 298 298 299 298 297 295 293 294 294 291 290 288 285 284 283 282 281 279 277 277
308 309 310 310 309 309 308 307 306 306 305 303 302 302 302 303 302 301 303 302 304 305 304 302 300 300 299 296 295 294 296 295 293 291 289 287 286 284 281 280 278 278 277
307 308 310 310 309 308 308 308 307 307 308 306 304 304 303 302 304 304 304 305 305 305 307 307 304 302 302 301 298 295 297 297 296 294 291 289 287 286 282 280 278 278 277
307 309 311 312 312 311 310 309 309 309 309 308 307 305 305 304 303 304 305 305 306 306 307 307 307 303 302 303 301 298 299 301 300 297 293 289 288 286 282 280 279 277 276
310 312 312 313 312 310 309 310 310 310 311 309 306 306 305 304 303 304 305 307 309 309 308 308 308 309 307 305 305 304 300 299 300 297 294 291 289 287 283 281 279 278 278
311 311 312 312 311 310 311 312 312 312 312 311 309 308 307 307 307 305 305 308 308 307 308 309 309 309 310 309 307 307 306 303 302 299 296 293 290 285 284 282 280 279 278
311 313 314 314 314 313 311 311 313 313 313 311 311 312 311 310 309 309 308 307 306 306 306 307 306 307 309 311 310 309 307 305 301 300 299 296 292 289 287 285 282 280 278
314 314 314 314 315 314 314 315 315 315 314 312 311 311 311 312 311 309 309 309 308 306 307 308 308 308 310 311 310 309 308 307 303 302 301 297 294 292 290 288 285 283 280
315 315 316 317 317 317 316 316 317 316 315 313 313 312 313 314 313 310 309 308 307 306 307 309 310 310 310 311 310 309 307 306 308 307 304 300 296 294 293 291 289 287 285
316 317 317 317 318 319 317 316 317 317 315 316 316 315 314 313 312 310 309 309 308 308 308 308 308 309 309 310 312 310 307 306 308 308 305 299 297 295 295 293 293 290 288
316 318 318 317 318 319 319 319 320 319 318 318 317 316 315 314 314 313 311 310 309 309 308 309 308 307 308 309 309 309 311 311 311 310 306 299 297 297 296 294 294 292 290
316 317 317 317 318 319 320 321 320 321 321 320 318 318 317 317 316 314 312 311 310 309 309 309 308 308 309 311 312 312 313 313 312 311 307 304 300 299 298 297 295 292 291
316 317 318 317 317 318 320 322 322 321 321 321 320 320 320 318 316 315 314 313 312 312 312 311 309 309 310 311 312 314 315 315 314 312 310 309 306 305 303 300 298 294 293
317 319 318 317 316 317 320 322 323 322 322 323 324 323 323 322 319 318 317 316 315 316 316 316 316 316 315 314 313 313 314 314 313 311 311 311 310 309 306 304 301 298 297
316 317 317 317 316 317 320 322 323 325 325 326 327 326 325 325 324 323 320 319 319 320 321 321 319 320 319 319 318 316 314 315 313 312 312 313 312 312 310 307 305 304 302
316 316 315 316 316 317 319 321 323 325 326 326 326 327 326 326 326 326 325 326 326 325 327 327 324 321 321 321 319 319 317 317 317 316 315 315 313 314 315 313 309 306 305
316 316 316 316 316 317 317 320 322 324 325 327 327 328 328 328 329 330 331 332 332 332 334 333 330 328 327 325 324 324 321 321 323 324 324 321 317 316 319 317 315 313 312
317 318 319 318 317 316 316 318 321 322 324 327 328 327 328 329 330 333 335 336 336 336 337 337 335 335 335 334 331 330 328 326 327 327 326 324 319 317 320 318 317 317 316
316 317 317 318 318 317 316 318 320 323 323 325 326 327 328 329 331 335 337 339 340 340 341 343 344 344 344 344 342 340 337 333 330 328 327 325 323 321 321 320 319 320 318
316 315 315 316 317 317 318 318 320 323 325 327 327 329 331 331 332 336 340 343 344 345 347 349 350 351 351 350 348 348 345 341 336 333 332 331 330 330 327 323 323 324 324
316 315 314 314 314 316 318 317 319 320 322 326 328 328 331 331 333 337 342 346 348 350 352 354 354 355 353 352 351 350 350 350 346 339 337 338 338 337 335 331 330 330 329